Погода в Сотниковском

Россия / Ставропольский край     45°00′10″N   43°46′59″E
темп.,
°C
ветер,
м/с
пор.,
м/с
влажн.,
%
обл.,
%
осадки,
мм/ч
давл.,
гПа
погр.,
м
24 октября, вс
вс2400:00+12зюз114450 0.0 101910
03:00+11сз465463 0.0 101980
06:00+10зсз3678100 0.0 102098
09:00+13зсз347394 0.0 1020290
12:00+17сз3456100 0.0 1018979
15:00+18ссз225262 0.0 10161256
18:00+14св3467100 0.0 101675
21:00+14всв3770100 0.0 1016292
25 октября, пн
пн2500:00+12всв2379100 0.0 1016101
03:00+11с5681100 0.2 1017481
06:00+7с71083100 0.6 1021603
09:00+6сз7985100 0.8 1025967
12:00+9сз6857100 0.1 10261352
15:00+10зсз5747100 0.1 10261476
18:00+9сз4749100 0.0 1029700
21:00+8сз475175 0.0 1030661
26 октября, вт
вт2600:00+7с3553100 0.0 1031397
03:00+4с22615 0.0 103240
06:00+2с1164100 0.0 103310
09:00+5с22515 0.0 1033365
12:00+8с22402 0.0 10321185
15:00+9св22330 0.0 10311329
18:00+6всв35410 0.0 103283
21:00+4в36450 0.0 1032111
27 октября, ср
ср2700:00+3вюв36520 0.0 1032120
03:00+2вюв37570 0.0 1031142
06:00+1вюв49630 0.0 1031177
09:00+5юв610480 0.0 1031498
12:00+10вюв79330 0.0 1028880
15:00+11вюв79330 0.0 1026967
18:00+7вюв411490 0.0 1026262
21:00+6вюв613720 0.0 1025356
28 октября, чт
чт2800:00+4вюв511810 0.0 1024295
03:00+3вюв39920 0.0 1024192
06:00+3юв23940 0.0 102441
09:00+7ююв34793 0.0 1024272
12:00+12в22610 0.0 1022728
15:00+14ссв235015 0.0 1021971
18:00+10вюв2267100 0.0 102219
21:00+9зюз0173100 0.0 102310